FENGYUN 1C DEB, 30811

Orbit data source: Space-Track

FENGYUN 1C DEB, 30811 is space debris in SSO originally from a launch on Mon, 10 May 1999 UTC launched from the Taiyaun Space Center, China (TSC). Fengyun 1C debris stems from the Chinese weather satellite Fengyun-1C, which was intentionally destroyed by a Chinese anti-satellite missile in 2007. This event dramatically increased the amount of space debris, with thousands of trackable fragments posing hazards to satellites and human spaceflight. The Fengyun 1C debris cloud has become a focal point in discussions about space sustainability and the need for international regulations to prevent the creation of new debris.

Loading next visibility...
Identifier
30811, 1999-025AUV
Orbit
SSO
Country
Flag of CNCN / PRC
Related business
Manufacturer
Unknown
Mission
Spacecraft
Bus & Motor
Unknown
Mass
Unknown
Launch date (UTC)
1999-05-10 (27 years ago)
Launch vehicle
Unknown
Launch site
Taiyaun Space Center, China (TSC)
Object type
Payload
Rocket body
Debris
Shape & HBR
Unknown shape, 0.1 m
Radar Cross Section
Medium (>0.1 m² and <1 m²)

Expand to show TLE details & history
Last TLE update: 2 weeks ago

TLE from 2 weeks ago
0 FENGYUN 1C DEB
1 30811U 99025AUV 26150.03969394  .00001274  00000-0  13142-2 0  9992
2 30811  98.7624 177.7674 0275583 326.6817  31.7241 13.62375435951588
Epoch: 2026-05-30T00:57Z
TLE epoch observation values (Epoch: 2026-05-30T00:57:09.556Z)
Latitude
0.00003°
Longitude
-84.08386°
Altitude
857.904 km
Speed
7.509 km/s
True Right ascension
11h 51m 04s
True Declination
0° 00' 00"
Sunlit
Object was in daylight at epoch
Visualization orbit readout
Latitude
Unknown
Longitude
Unknown
Altitude
Unknown
Speed
Unknown
Apparent Right ascension
Unknown
Apparent Declination
Unknown
Sunlit
N/A
Visualization observer readout
Local Sidereal Time
20:30:01
Azimuth
Unknown
Elevation
Unknown
Doppler factor
Unknown
Orbital elements
Apogee altitude
1,228.306 km
Perigee altitude
820.308 km
Semi-major axis
7,402.444 km
Eccentricity
0.02756
Inclination
98.7624°
RAAN
177.7674°
Arg. of periapsis
326.6817°
True anomaly
33.43445°
Mean anomaly
31.7241°
Eccentric anomaly
32.57421°
Mean motion
3.40785 °/min
Orbital period
105.64 mins
BSTAR
0.0013142
Loading maneuver chart data...
Computing Atmospheric mass density...

Documentation

Showing up to 5 results
|